DW4183 Weather Reports


Display with metric or nautical units.
time (UTC)temp
F
wind
direction
speed
MPH
gust
MPH
rain 1hr
in
rain 24hr
in
rain mn
in
humidity
%
barometer
mb
20260508134540 51 351 0.0 0.0 0.00 0.00 0.00 70 1017.0
20260508133033 50 357 0.0 0.0 0.00 0.00 0.00 82 1017.0
20260508131533 49 352 0.0 0.0 0.00 0.00 0.00 85 1016.9
20260508130032 48 2 0.0 0.0 0.00 0.00 0.00 90 1016.7
20260508124533 48 2 0.0 0.0 0.00 0.00 0.00 92 1016.9
20260508123030 46 2 0.0 0.0 0.00 0.00 0.00 92 1016.7
20260508121529 45 7 0.0 0.0 0.00 0.00 0.00 91 1016.7
20260508120027 44 7 0.0 0.0 0.00 0.00 0.00 91 1016.3
20260508114525 43 7 0.0 0.0 0.00 0.00 0.00 91 1016.2
20260508113024 43 7 0.0 0.0 0.00 0.00 0.00 91 1015.9
20260508111522 42 7 0.0 0.0 0.00 0.00 0.00 90 1015.7
20260508110030 42 7 0.0 0.0 0.00 0.00 0.00 90 1015.5
20260508104518 42 7 0.0 0.0 0.00 0.00 0.00 90 1015.2
20260508103035 42 7 0.0 0.0 0.00 0.00 0.00 90 1014.7
20260508101516 43 11 0.0 0.0 0.00 0.00 0.00 90 1014.5
20260508100013 43 2 0.0 0.0 0.00 0.00 0.00 90 1014.5
20260508094509 43 2 0.0 0.0 0.00 0.00 0.00 90 1014.3
20260508093010 43 2 0.0 0.0 0.00 0.00 0.00 89 1014.2
20260508091508 44 2 0.0 0.0 0.00 0.00 0.00 89 1014.0
20260508090006 44 2 0.0 0.0 0.00 0.00 0.00 89 1014.0
20260508084504 44 2 0.0 0.0 0.00 0.00 0.00 89 1013.9
20260508083002 45 2 0.0 0.0 0.00 0.00 0.00 89 1014.0
20260508081614 45 2 0.0 0.0 0.00 0.00 0.00 89 1013.8
20260508080101 45 2 0.0 0.0 0.00 0.00 0.00 89 1013.6
20260508074607 45 2 0.0 0.0 0.00 0.00 0.00 89 1013.5
20260508073056 46 2 0.0 0.0 0.00 0.00 0.00 89 1013.6
20260508071554 46 2 0.0 0.0 0.00 0.00 0.00 89 1013.4
20260508070053 46 2 0.0 0.0 0.00 0.00 0.00 89 1013.3
20260508064551 46 2 0.0 0.0 0.00 0.00 0.00 89 1013.3
20260508063055 47 2 0.0 0.0 0.00 0.00 0.00 89 1013.2
20260508061549 47 2 0.0 0.0 0.00 0.00 0.00 88 1013.0
20260508060058 47 2 0.0 0.0 0.00 0.00 0.00 89 1013.2
20260508054620 47 2 0.0 0.0 0.00 0.00 0.00 88 1012.9
20260508053050 47 2 0.0 0.0 0.00 0.00 0.00 88 1013.0
20260508051541 48 7 0.0 0.0 0.00 0.00 0.00 88 1012.8
20260508050038 48 7 0.0 0.0 0.00 0.00 0.00 87 1012.6
20260508044536 49 7 0.0 0.0 0.00 0.00 0.00 87 1012.6
20260508043037 49 7 0.0 0.0 0.00 0.00 0.00 87 1012.5
20260508041533 49 7 0.0 0.0 0.00 0.00 0.00 87 1012.5
20260508040033 50 7 0.0 0.0 0.00 0.00 0.00 86 1012.3
20260508034535 50 7 0.0 0.0 0.00 0.00 0.24 85 1012.1
20260508033032 50 7 0.0 0.0 0.00 0.00 0.24 85 1012.1
20260508031525 50 11 0.0 0.0 0.00 0.00 0.24 85 1012.1
20260508030024 51 12 0.0 0.0 0.00 0.00 0.24 84 1012.1
20260508024520 51 2 0.0 0.0 0.00 0.00 0.24 84 1011.8
20260508023019 51 2 0.0 0.0 0.00 0.00 0.24 82 1011.8
20260508021517 52 24 0.0 0.0 0.00 0.00 0.24 80 1011.5
20260508020016 52 24 0.0 0.0 0.00 0.00 0.24 78 1011.2
20260508014511 54 24 0.0 0.0 0.00 0.00 0.24 77 1010.7
20260508013009 55 24 0.0 0.0 0.00 0.00 0.24 75 1010.4
20260508011504 56 24 1.0 0.0 0.00 0.00 0.24 72 1010.3
20260508010005 57 24 0.0 0.0 0.00 0.00 0.24 67 1010.1
20260508004600 58 24 1.0 0.0 0.00 0.00 0.24 67 1009.8
20260508003057 59 26 2.0 0.0 0.00 0.00 0.24 67 1009.6
20260508001557 60 45 2.0 0.0 0.00 0.00 0.24 67 1009.4
20260508000054 61 38 2.0 0.0 0.00 0.00 0.24 66 1009.4
20260507234551 61 19 2.0 0.0 0.00 0.00 0.24 69 1009.3
20260507233051 62 14 2.0 0.0 0.00 0.00 0.24 72 1008.9
20260507231551 63 7 1.0 0.0 0.00 0.00 0.24 80 1008.7
20260507230049 63 58 1.0 0.0 0.00 0.00 0.24 82 1008.4
20260507224548 63 11 1.0 0.0 0.00 0.00 0.24 84 1007.9
20260507223048 62 27 0.0 0.0 0.00 0.00 0.24 85 1007.8
20260507221547 62 165 1.0 0.0 0.00 0.00 0.24 84 1007.6
20260507220047 62 282 1.0 0.0 0.00 0.00 0.24 84 1007.4
20260507214549 62 64 1.0 0.0 0.00 0.00 0.24 85 1007.3
20260507213047 62 332 2.0 0.0 0.00 0.00 0.24 86 1006.9
20260507211551 62 69 2.0 0.0 0.00 0.00 0.24 86 1007.0
20260507210045 63 21 2.0 0.0 0.00 0.00 0.24 84 1006.8
20260507204544 62 48 2.0 0.0 0.00 0.00 0.24 89 1006.5
20260507203046 62 340 2.0 0.0 0.00 0.00 0.24 87 1006.4
20260507201544 63 57 2.0 0.0 0.00 0.00 0.24 87 1006.2
20260507200043 65 166 1.0 0.0 0.00 0.00 0.23 87 1006.1
20260507194546 66 102 2.0 0.0 0.00 0.00 0.22 86 1006.0
20260507193043 68 85 1.0 0.0 0.00 0.00 0.21 83 1005.7
20260507191541 71 7 1.0 0.0 0.00 0.00 0.20 79 1005.6
20260507190041 72 39 0.0 0.0 0.00 0.00 0.20 76 1005.5
20260507184538 74 66 1.0 0.0 0.00 0.00 0.20 69 1005.3
20260507183045 74 312 1.0 0.0 0.00 0.00 0.20 73 1005.6
20260507181538 73 311 0.0 0.0 0.00 0.00 0.20 75 1005.6
20260507180033 72 314 0.0 0.0 0.00 0.00 0.20 77 1006.0
20260507174529 71 313 0.0 0.0 0.00 0.00 0.20 77 1006.2
20260507173026 71 313 1.0 0.0 0.00 0.00 0.20 77 1006.2
20260507171525 72 315 2.0 0.0 0.00 0.00 0.20 77 1006.3
20260507170022 69 301 1.0 0.0 0.00 0.00 0.20 83 1006.6
20260507164518 68 292 1.0 0.0 0.00 0.00 0.20 84 1007.1
20260507163015 67 327 0.0 0.0 0.00 0.00 0.20 86 1007.1
20260507161512 66 338 1.0 0.0 0.00 0.00 0.20 90 1007.1
20260507160022 65 39 0.0 0.0 0.00 0.00 0.19 91 1007.0
20260507154508 64 41 0.0 0.0 0.00 0.00 0.19 91 1006.9
20260507153008 65 346 1.0 0.0 0.00 0.00 0.19 92 1006.7
20260507151505 64 18 0.0 0.0 0.00 0.00 0.18 92 1007.0
20260507150005 63 18 0.0 0.0 0.00 0.00 0.18 92 1007.3
20260507144502 63 18 0.0 0.0 0.00 0.00 0.17 92 1007.7
20260507143000 63 18 0.0 0.0 0.00 0.00 0.17 92 1007.8
20260507141601 62 18 0.0 0.0 0.00 0.00 0.17 92 1007.8
20260507140108 62 18 0.0 0.0 0.00 0.00 0.16 92 1007.3